TimeCDT,TemperatureF,Dew PointF,Humidity,Sea Level PressureIn,VisibilityMPH,Wind Direction,Wind SpeedMPH,Gust SpeedMPH,PrecipitationIn,Events,Conditions,WindDirDegrees,DateUTC
12:15 AM,71.6,70.9,98,29.84,7.0,Calm,Calm,-,N/A,Thunderstorm,Overcast,0,2014-05-29 05:15:00
12:35 AM,71.6,70.3,96,29.83,10.0,Calm,Calm,-,N/A,,Overcast,0,2014-05-29 05:35:00
12:55 AM,71.6,70.3,96,29.83,10.0,ESE,4.6,-,N/A,,Overcast,120,2014-05-29 05:55:00
1:15 AM,71.1,70.5,98,29.83,10.0,ESE,3.5,-,N/A,,Overcast,110,2014-05-29 06:15:00
1:35 AM,71.6,70.7,97,29.82,10.0,ESE,4.6,-,N/A,,Overcast,110,2014-05-29 06:35:00
1:55 AM,71.6,70.7,97,29.82,10.0,ESE,6.9,-,N/A,,Overcast,120,2014-05-29 06:55:00
2:15 AM,71.6,70.2,95,29.82,10.0,SE,8.1,-,N/A,,Overcast,130,2014-05-29 07:15:00
2:35 AM,71.6,70.2,95,29.81,10.0,SE,8.1,-,N/A,,Overcast,130,2014-05-29 07:35:00
2:55 AM,71.6,70.0,95,29.81,10.0,SE,8.1,-,N/A,,Overcast,140,2014-05-29 07:55:00
3:15 AM,71.6,69.8,94,29.80,10.0,SSE,8.1,-,N/A,,Overcast,150,2014-05-29 08:15:00
3:35 AM,71.2,69.8,95,29.81,10.0,SSE,8.1,-,N/A,,Overcast,150,2014-05-29 08:35:00
4:15 AM,71.2,69.8,95,29.81,10.0,SSE,6.9,-,N/A,,Overcast,160,2014-05-29 09:15:00
4:35 AM,71.1,69.8,96,29.81,10.0,SSE,5.8,-,N/A,,Overcast,160,2014-05-29 09:35:00
4:55 AM,71.1,69.8,96,29.81,10.0,SSE,9.2,-,N/A,,Overcast,160,2014-05-29 09:55:00
5:15 AM,71.2,69.8,95,29.81,10.0,SSE,6.9,-,N/A,,Overcast,150,2014-05-29 10:15:00
5:35 AM,71.1,69.8,96,29.81,10.0,SSE,6.9,-,N/A,,Overcast,150,2014-05-29 10:35:00
5:55 AM,71.1,70.2,97,29.81,10.0,SSE,6.9,-,N/A,,Light Drizzle,150,2014-05-29 10:55:00
6:15 AM,71.2,70.3,97,29.82,10.0,SSE,3.5,-,N/A,,Overcast,150,2014-05-29 11:15:00
6:35 AM,71.6,70.7,97,29.82,7.0,SSE,3.5,-,N/A,,Overcast,160,2014-05-29 11:35:00
6:55 AM,71.6,70.7,97,29.82,7.0,Calm,Calm,-,N/A,,Overcast,0,2014-05-29 11:55:00
7:15 AM,72.0,70.9,96,29.82,10.0,Calm,Calm,-,N/A,,Overcast,0,2014-05-29 12:15:00
7:35 AM,72.1,71.2,97,29.82,7.0,Calm,Calm,-,N/A,,Overcast,0,2014-05-29 12:35:00
7:55 AM,72.5,70.9,95,29.83,10.0,Calm,Calm,-,N/A,,Overcast,0,2014-05-29 12:55:00
8:15 AM,73.2,71.4,94,29.83,10.0,Calm,Calm,-,N/A,,Overcast,0,2014-05-29 13:15:00
8:35 AM,74.3,71.1,90,29.83,10.0,Calm,Calm,-,N/A,,Mostly Cloudy,0,2014-05-29 13:35:00
8:55 AM,75.0,71.4,89,29.83,10.0,Calm,Calm,-,N/A,,Mostly Cloudy,0,2014-05-29 13:55:00
9:15 AM,76.1,71.6,86,29.83,10.0,Calm,Calm,-,N/A,,Mostly Cloudy,0,2014-05-29 14:15:00
9:35 AM,74.8,70.7,87,29.84,10.0,Calm,Calm,-,N/A,,Mostly Cloudy,0,2014-05-29 14:35:00
9:55 AM,75.2,71.6,89,29.84,10.0,Calm,Calm,-,N/A,,Mostly Cloudy,0,2014-05-29 14:55:00
10:15 AM,73.8,71.8,93,29.84,10.0,Calm,Calm,-,N/A,,Overcast,0,2014-05-29 15:15:00
10:35 AM,73.6,71.6,93,29.85,10.0,Calm,Calm,-,N/A,,Overcast,0,2014-05-29 15:35:00
10:55 AM,73.4,70.7,91,29.85,10.0,Calm,Calm,-,N/A,Thunderstorm,Overcast,0,2014-05-29 15:55:00
11:15 AM,74.5,70.9,88,29.85,10.0,SE,6.9,-,N/A,,Mostly Cloudy,140,2014-05-29 16:15:00
11:35 AM,74.1,71.2,91,29.86,10.0,East,5.8,-,N/A,,Overcast,100,2014-05-29 16:35:00
11:55 AM,75.4,71.8,89,29.86,7.0,ESE,6.9,-,N/A,,Overcast,120,2014-05-29 16:55:00
12:15 PM,73.8,70.9,91,29.86,10.0,SE,8.1,-,N/A,,Overcast,130,2014-05-29 17:15:00
12:35 PM,75.7,71.2,86,29.85,10.0,ESE,8.1,-,N/A,,Overcast,110,2014-05-29 17:35:00
1:15 PM,78.3,70.5,77,29.84,10.0,SE,5.8,-,N/A,,Scattered Clouds,130,2014-05-29 18:15:00
1:35 PM,79.0,71.1,77,29.84,10.0,ESE,3.5,-,N/A,,Scattered Clouds,110,2014-05-29 18:35:00
1:55 PM,79.5,71.2,76,29.83,10.0,East,3.5,-,N/A,,Scattered Clouds,90,2014-05-29 18:55:00
2:15 PM,79.2,70.7,75,29.82,10.0,ENE,4.6,-,N/A,,Overcast,70,2014-05-29 19:15:00
2:55 PM,76.3,71.2,84,29.82,10.0,NNE,3.5,-,0.01,Rain,Light Rain,20,2014-05-29 19:55:00
3:15 PM,74.7,71.2,89,29.82,2.0,Calm,Calm,-,0.12,Rain,Rain,0,2014-05-29 20:15:00
3:35 PM,74.5,71.1,89,29.81,10.0,South,4.6,-,0.13,,Drizzle,190,2014-05-29 20:35:00
3:55 PM,76.1,73.0,90,29.80,10.0,Calm,Calm,-,0.14,,Overcast,0,2014-05-29 20:55:00
4:15 PM,76.5,72.7,88,29.80,10.0,SE,3.5,-,N/A,,Overcast,130,2014-05-29 21:15:00
4:35 PM,76.6,71.4,84,29.79,10.0,Calm,Calm,-,N/A,,Overcast,0,2014-05-29 21:35:00
4:55 PM,77.0,71.4,83,29.78,10.0,SSW,3.5,-,N/A,,Overcast,200,2014-05-29 21:55:00
5:15 PM,76.5,71.6,85,29.78,10.0,Calm,Calm,-,N/A,,Overcast,0,2014-05-29 22:15:00
5:35 PM,77.0,71.8,84,29.78,10.0,Calm,Calm,-,N/A,,Overcast,0,2014-05-29 22:35:00
5:55 PM,77.4,71.4,82,29.79,10.0,Calm,Calm,-,N/A,,Overcast,0,2014-05-29 22:55:00
6:15 PM,78.3,71.2,79,29.79,10.0,Calm,Calm,-,N/A,,Mostly Cloudy,0,2014-05-29 23:15:00
6:35 PM,78.8,71.2,78,29.79,10.0,East,4.6,-,N/A,,Scattered Clouds,80,2014-05-29 23:35:00
6:55 PM,78.3,71.2,79,29.80,10.0,Calm,Calm,-,N/A,,Clear,0,2014-05-29 23:55:00
7:15 PM,77.0,70.9,81,29.80,10.0,East,4.6,-,N/A,,Scattered Clouds,100,2014-05-30 00:15:00
7:35 PM,75.6,70.9,85,29.80,10.0,ESE,5.8,-,N/A,,Scattered Clouds,110,2014-05-30 00:35:00
7:55 PM,74.7,70.7,87,29.80,10.0,ESE,4.6,-,N/A,,Clear,110,2014-05-30 00:55:00
8:15 PM,74.3,70.7,88,29.80,10.0,Calm,Calm,-,N/A,,Scattered Clouds,0,2014-05-30 01:15:00
8:35 PM,73.4,70.9,92,29.81,10.0,Calm,Calm,-,N/A,,Scattered Clouds,0,2014-05-30 01:35:00
8:55 PM,73.4,70.9,92,29.81,10.0,Calm,Calm,-,N/A,,Mostly Cloudy,0,2014-05-30 01:55:00
9:15 PM,72.5,71.1,95,29.82,10.0,Calm,Calm,-,N/A,,Scattered Clouds,0,2014-05-30 02:15:00
9:35 PM,72.7,71.2,95,29.83,10.0,Calm,Calm,-,N/A,,Scattered Clouds,0,2014-05-30 02:35:00
9:55 PM,72.5,71.2,96,29.83,10.0,SSW,3.5,-,N/A,,Scattered Clouds,210,2014-05-30 02:55:00
10:15 PM,72.5,71.6,97,29.84,10.0,Calm,Calm,-,N/A,,Scattered Clouds,0,2014-05-30 03:15:00
10:35 PM,72.5,71.6,97,29.85,10.0,Calm,Calm,-,N/A,,Mostly Cloudy,0,2014-05-30 03:35:00
10:55 PM,72.7,71.6,96,29.85,10.0,Calm,Calm,-,N/A,,Overcast,0,2014-05-30 03:55:00
11:15 PM,72.9,71.6,96,29.85,10.0,Calm,Calm,-,N/A,,Overcast,0,2014-05-30 04:15:00
11:35 PM,72.5,71.6,97,29.84,10.0,Calm,Calm,-,N/A,,Mostly Cloudy,0,2014-05-30 04:35:00
11:55 PM,72.3,71.2,96,29.84,10.0,Calm,Calm,-,N/A,,Clear,0,2014-05-30 04:55:00